When you browse on this site, cookies collect data to enhance your experience and personalize the content and advertising you see.
Visit our Privacy Policy to learn more. By continuing to use the site, you agree to this use of cookies and data.
  • In Deutschland
  • Länderverzeichnis
  • Für 7 Tage
  • Wassertemperatur
  • Satellitenkarten
  • Wetterkarte
  • Widgets
  • user-avatar
    Anmelden

    Stündliche Wetter Gomel

    Heute, 22 Mai, Mittwoch

    Zeit Temperatur Niederschläge Wind Luftdruck Luftfeuchtigkeit
    00:00 +14°C° 0 mm 3 m/S 747 mmHg 92%
    01:00 +14°C° 0 mm 3 m/S 747 mmHg 94%
    02:00 +13°C° 0 mm 3 m/S 746 mmHg 95%
    03:00 +14°C° 0 mm 2 m/S 746 mmHg 96%
    04:00 +14°C° 0 mm 2 m/S 746 mmHg 96%
    05:00 +14°C° 0 mm 2 m/S 746 mmHg 96%
    06:00 +16°C° 0 mm 2 m/S 746 mmHg 89%
    07:00 +17°C° 0 mm 2 m/S 746 mmHg 81%
    08:00 +19°C° 0 mm 2 m/S 746 mmHg 74%
    09:00 +22°C° 0.2 mm 1 m/S 746 mmHg 67%
    10:00 +24°C° 0.2 mm 1 m/S 746 mmHg 59%
    11:00 +25°C° 0.2 mm 1 m/S 746 mmHg 52%
    12:00 +25°C° 0 mm 1 m/S 745 mmHg 50%
    13:00 +23°C° 0 mm 0 m/S 745 mmHg 49%
    14:00 +23°C° 0 mm 0 m/S 745 mmHg 47%
    15:00 +25°C° 0.3 mm 1 m/S 745 mmHg 51%
    16:00 +25°C° 0.3 mm 1 m/S 744 mmHg 54%
    17:00 +24°C° 0.3 mm 1 m/S 744 mmHg 57%
    18:00 +23°C° 0 mm 1 m/S 744 mmHg 62%
    19:00 +21°C° 0 mm 1 m/S 744 mmHg 67%
    20:00 +19°C° 0 mm 1 m/S 744 mmHg 72%
    21:00 +19°C° 0 mm 1 m/S 744 mmHg 73%
    22:00 +18°C° 0 mm 1 m/S 744 mmHg 74%
    23:00 +18°C° 0 mm 1 m/S 744 mmHg 75%

    Morgen, 23 Mai, Donnerstag

    Zeit Temperatur Niederschläge Wind Luftdruck Luftfeuchtigkeit
    00:00 +16°C° 0 mm 1 m/S 744 mmHg 75%
    01:00 +16°C° 0 mm 1 m/S 744 mmHg 76%
    02:00 +16°C° 0 mm 1 m/S 744 mmHg 77%
    03:00 +15°C° 0 mm 1 m/S 744 mmHg 78%
    04:00 +15°C° 0 mm 2 m/S 744 mmHg 79%
    05:00 +15°C° 0 mm 2 m/S 744 mmHg 80%
    06:00 +17°C° 0 mm 2 m/S 744 mmHg 75%
    07:00 +19°C° 0 mm 2 m/S 744 mmHg 70%
    08:00 +21°C° 0 mm 2 m/S 744 mmHg 65%
    09:00 +23°C° 0 mm 2 m/S 744 mmHg 60%
    10:00 +24°C° 0 mm 2 m/S 744 mmHg 54%
    11:00 +26°C° 0 mm 2 m/S 744 mmHg 48%
    12:00 +26°C° 0 mm 2 m/S 744 mmHg 46%
    13:00 +27°C° 0 mm 2 m/S 744 mmHg 45%
    14:00 +27°C° 0 mm 2 m/S 744 mmHg 43%
    15:00 +27°C° 0 mm 2 m/S 744 mmHg 46%
    16:00 +26°C° 0 mm 2 m/S 743 mmHg 49%
    17:00 +26°C° 0 mm 2 m/S 743 mmHg 52%
    18:00 +24°C° 0 mm 2 m/S 743 mmHg 56%
    19:00 +23°C° 0 mm 2 m/S 744 mmHg 59%
    20:00 +20°C° 0 mm 2 m/S 744 mmHg 63%
    21:00 +19°C° 0 mm 2 m/S 744 mmHg 65%
    22:00 +18°C° 0 mm 2 m/S 744 mmHg 67%
    23:00 +18°C° 0 mm 2 m/S 744 mmHg 69%

    übermorgen, 24 Mai, Freitag

    Zeit Temperatur Niederschläge Wind Luftdruck Luftfeuchtigkeit
    00:00 +17°C° 0 mm 2 m/S 744 mmHg 72%
    01:00 +17°C° 0 mm 2 m/S 744 mmHg 75%
    02:00 +16°C° 0 mm 2 m/S 744 mmHg 78%
    03:00 +16°C° 0 mm 2 m/S 744 mmHg 80%
    04:00 +16°C° 0 mm 2 m/S 744 mmHg 81%
    05:00 +16°C° 0 mm 1 m/S 744 mmHg 83%
    06:00 +19°C° 0 mm 1 m/S 745 mmHg 77%
    07:00 +21°C° 0 mm 1 m/S 745 mmHg 71%
    08:00 +23°C° 0 mm 1 m/S 745 mmHg 65%
    09:00 +24°C° 0.1 mm 1 m/S 745 mmHg 59%
    10:00 +25°C° 0.1 mm 1 m/S 745 mmHg 53%
    11:00 +27°C° 0.1 mm 1 m/S 745 mmHg 48%
    12:00 +27°C° 0 mm 2 m/S 744 mmHg 48%
    13:00 +27°C° 0 mm 2 m/S 744 mmHg 49%
    14:00 +27°C° 0 mm 2 m/S 744 mmHg 50%
    15:00 +26°C° 0 mm 1 m/S 744 mmHg 52%
    16:00 +26°C° 0 mm 1 m/S 744 mmHg 54%
    17:00 +25°C° 0 mm 1 m/S 744 mmHg 56%
    18:00 +24°C° 0 mm 1 m/S 744 mmHg 59%
    19:00 +23°C° 0 mm 1 m/S 744 mmHg 62%
    20:00 +21°C° 0 mm 2 m/S 744 mmHg 65%
    21:00 +21°C° 0.7 mm 1 m/S 744 mmHg 71%
    22:00 +20°C° 0.7 mm 1 m/S 744 mmHg 76%
    23:00 +19°C° 0.7 mm 1 m/S 744 mmHg 82%

    25 Mai, Samstag

    Zeit Temperatur Niederschläge Wind Luftdruck Luftfeuchtigkeit
    00:00 +18°C° 0.6 mm 1 m/S 743 mmHg 84%
    01:00 +18°C° 0.6 mm 1 m/S 743 mmHg 86%
    02:00 +16°C° 0.6 mm 1 m/S 743 mmHg 88%
    03:00 +16°C° 0.1 mm 1 m/S 743 mmHg 89%
    04:00 +16°C° 0.1 mm 1 m/S 743 mmHg 89%
    05:00 +18°C° 0.1 mm 1 m/S 743 mmHg 90%
    06:00 +19°C° 0.3 mm 1 m/S 743 mmHg 86%
    07:00 +19°C° 0.3 mm 2 m/S 743 mmHg 82%
    08:00 +20°C° 0.3 mm 2 m/S 743 mmHg 78%
    09:00 +21°C° 1 mm 3 m/S 743 mmHg 76%
    10:00 +21°C° 1 mm 4 m/S 743 mmHg 75%
    11:00 +22°C° 1 mm 4 m/S 743 mmHg 73%
    12:00 +21°C° 0.2 mm 5 m/S 742 mmHg 73%
    13:00 +21°C° 0.2 mm 5 m/S 742 mmHg 74%
    14:00 +21°C° 0.2 mm 5 m/S 742 mmHg 74%
    15:00 +21°C° 0.1 mm 5 m/S 742 mmHg 72%
    16:00 +21°C° 0.1 mm 4 m/S 742 mmHg 71%
    17:00 +21°C° 0.1 mm 4 m/S 742 mmHg 69%
    18:00 +20°C° 0.1 mm 3 m/S 742 mmHg 72%
    19:00 +18°C° 0.1 mm 3 m/S 742 mmHg 74%
    20:00 +17°C° 0.1 mm 2 m/S 742 mmHg 77%
    21:00 +16°C° 0 mm 2 m/S 742 mmHg 75%
    22:00 +14°C° 0 mm 3 m/S 743 mmHg 73%
    23:00 +13°C° 0 mm 3 m/S 743 mmHg 71%

    26 Mai, Sonntag

    Zeit Temperatur Niederschläge Wind Luftdruck Luftfeuchtigkeit
    00:00 +13°C° 0 mm 2 m/S 743 mmHg 75%
    01:00 +13°C° 0 mm 2 m/S 743 mmHg 80%
    02:00 +13°C° 0 mm 2 m/S 743 mmHg 85%
    03:00 +13°C° 0 mm 2 m/S 743 mmHg 88%
    04:00 +12°C° 0 mm 3 m/S 743 mmHg 90%
    05:00 +12°C° 0 mm 3 m/S 744 mmHg 93%
    06:00 +13°C° 0 mm 3 m/S 744 mmHg 86%
    07:00 +14°C° 0 mm 3 m/S 744 mmHg 79%
    08:00 +15°C° 0 mm 4 m/S 744 mmHg 73%
    09:00 +15°C° 0 mm 4 m/S 744 mmHg 71%
    10:00 +15°C° 0 mm 4 m/S 744 mmHg 70%
    11:00 +14°C° 0 mm 5 m/S 744 mmHg 69%
    12:00 +15°C° 0 mm 5 m/S 744 mmHg 66%
    13:00 +15°C° 0 mm 5 m/S 744 mmHg 63%
    14:00 +16°C° 0 mm 5 m/S 743 mmHg 59%
    15:00 +16°C° 0 mm 5 m/S 743 mmHg 61%
    16:00 +16°C° 0 mm 5 m/S 743 mmHg 62%
    17:00 +17°C° 0 mm 4 m/S 743 mmHg 64%
    18:00 +15°C° 0 mm 4 m/S 743 mmHg 68%
    19:00 +14°C° 0 mm 4 m/S 743 mmHg 71%
    20:00 +13°C° 0 mm 3 m/S 743 mmHg 75%
    21:00 +13°C° 0.1 mm 3 m/S 743 mmHg 77%
    22:00 +12°C° 0.1 mm 4 m/S 743 mmHg 80%
    23:00 +12°C° 0.1 mm 4 m/S 743 mmHg 82%

    27 Mai, Montag

    Zeit Temperatur Niederschläge Wind Luftdruck Luftfeuchtigkeit
    00:00 +11°C° 0 mm 4 m/S 743 mmHg 82%
    01:00 +11°C° 0 mm 4 m/S 743 mmHg 83%
    02:00 +11°C° 0 mm 4 m/S 743 mmHg 83%
    03:00 +11°C° 0 mm 4 m/S 743 mmHg 83%
    04:00 +10°C° 0 mm 4 m/S 743 mmHg 84%
    05:00 +9°C° 0 mm 5 m/S 744 mmHg 84%
    06:00 +10°C° 0.1 mm 5 m/S 744 mmHg 78%
    07:00 +10°C° 0.1 mm 6 m/S 744 mmHg 72%
    08:00 +10°C° 0.1 mm 6 m/S 744 mmHg 66%
    09:00 +13°C° 0 mm 6 m/S 745 mmHg 62%
    10:00 +14°C° 0 mm 6 m/S 745 mmHg 57%
    11:00 +15°C° 0 mm 6 m/S 745 mmHg 53%
    12:00 +15°C° 0 mm 6 m/S 745 mmHg 51%
    13:00 +16°C° 0 mm 6 m/S 746 mmHg 50%
    14:00 +17°C° 0 mm 6 m/S 746 mmHg 48%
    15:00 +17°C° 0 mm 6 m/S 746 mmHg 50%
    16:00 +17°C° 0 mm 5 m/S 746 mmHg 51%
    17:00 +17°C° 0 mm 5 m/S 746 mmHg 52%
    18:00 +15°C° 0 mm 4 m/S 746 mmHg 58%
    19:00 +14°C° 0 mm 3 m/S 747 mmHg 65%
    20:00 +13°C° 0 mm 2 m/S 747 mmHg 71%
    21:00 +13°C° 0 mm 2 m/S 747 mmHg 72%
    22:00 +12°C° 0 mm 2 m/S 747 mmHg 73%
    23:00 +12°C° 0 mm 2 m/S 748 mmHg 74%
    Mehr zeigen